Flag for Germany Weather past 2 weeks in Hamburg, Hamburg, Germany

46 °F

Partly sunny.

Feels Like: 39 °F
Forecast: 42 / 46 °F
Wind: 18 mph from Southwest

Location: Hamburg-Fuhlsbuettel

Current Time: Nov 29, 2015 at 10:22:49 AM

Latest Report: Nov 29, 2015 at 9:50 AM

Visibility: N/A

Pressure: 29.59 "Hg

Humidity: 87%

Dew point: 43 °F

Location of HamburgLocation

Historic Weather in Hamburg — Graph


Hamburg temperature yesterday

Maximum temperature yesterday: 46 °F (at 1:50 PM)
Minimum temperature yesterday: 37 °F (at 2:50 AM)
Average temperature yesterday: 41 °F

Past Weeks' High & Low Weather Summary

High57 °F (Nov 17, 11:50 PM)100% (Nov 15, 12:20 AM)30.15 "Hg (Nov 15, 12:20 AM)
Low30 °F (Nov 22, 2:20 AM)66% (Nov 24, 12:50 PM)29.30 "Hg (Nov 21, 1:20 AM)
Average43 °F89%29.71 "Hg
* Reported Nov 14 9:20 AM — Nov 29 9:20 AM, Hamburg, Weather by CustomWeather, © 2015

Note: Actual official high and low records may vary slightly from our data, if they occured in-between our weather recording intervals... More about our weather records


Hamburg weather history for previous 24 hours

Time TempWeatherWind HumidityBarometerVisibility
9:20 AM
Sun, Nov 29
46 °FPartly sunny.18 mph87%29.59 "HgN/A
8:50 AM46 °FPartly sunny.20 mph87%29.56 "HgN/A
8:20 AM46 °FBroken clouds.17 mph87%29.56 "HgN/A
7:50 AM46 °FPartly cloudy.17 mph87%29.56 "HgN/A
7:20 AM46 °FPartly cloudy.16 mph87%29.56 "HgN/A
6:20 AM45 °FPassing clouds.17 mph93%29.56 "HgN/A
5:50 AM45 °FScattered showers. Passing clouds.20 mph93%29.56 "HgN/A
5:20 AM45 °FScattered showers. Partly cloudy.20 mph87%29.53 "HgN/A
4:50 AM45 °FSprinkles. Partly cloudy.23 mph87%29.56 "HgN/A
4:20 AM43 °FSprinkles. Partly cloudy.20 mph93%29.56 "HgN/A
3:50 AM43 °FSprinkles. Passing clouds.22 mph93%29.56 "HgN/A
3:20 AM41 °FLight rain. Passing clouds.22 mph93%29.56 "HgN/A
2:50 AM41 °FLight rain. Passing clouds.24 mph93%29.59 "HgN/A
2:20 AM41 °FLight rain. Passing clouds.24 mph93%29.59 "HgN/A
1:50 AM41 °FLight rain. Passing clouds.25 mph93%29.59 "HgN/A
1:20 AM41 °FLight rain. Passing clouds.22 mph87%29.59 "HgN/A
12:50 AM41 °FRain. Passing clouds.22 mph87%29.62 "HgN/A
12:20 AM41 °FLight rain. Passing clouds.20 mph87%29.65 "HgN/A
11:50 PM
Sat, Nov 28
41 °FScattered showers. Passing clouds.21 mph87%29.65 "HgN/A
11:20 PM41 °FPassing clouds.20 mph87%29.68 "HgN/A
10:50 PM41 °FScattered showers. Passing clouds.20 mph87%29.71 "HgN/A
10:20 PM41 °FLight rain. Passing clouds.17 mph87%29.71 "HgN/A
9:20 PM41 °FClear.20 mph81%29.74 "Hg10 mi
8:50 PM41 °FClear.18 mph81%29.77 "Hg10 mi
8:20 PM41 °FClear.16 mph81%29.77 "Hg10 mi
7:50 PM39 °FClear.15 mph87%29.77 "Hg10 mi
7:20 PM39 °FClear.14 mph87%29.77 "Hg10 mi
6:50 PM39 °FClear.13 mph87%29.77 "Hg10 mi
6:20 PM41 °FPassing clouds.13 mph81%29.77 "HgN/A
5:50 PM41 °FPassing clouds.10 mph81%29.77 "HgN/A
5:20 PM41 °FSprinkles. Passing clouds.9 mph87%29.77 "HgN/A
4:50 PM41 °FPassing clouds.12 mph87%29.77 "HgN/A
4:20 PM43 °FPassing clouds.10 mph81%29.77 "HgN/A
3:50 PM43 °FScattered clouds.9 mph81%29.77 "HgN/A
3:20 PM43 °FScattered showers. Scattered clouds.9 mph81%29.74 "HgN/A
2:50 PM43 °FScattered clouds.10 mph81%29.74 "HgN/A
2:20 PM43 °FSprinkles. Partly sunny.18 mph76%29.74 "HgN/A
1:50 PM46 °FScattered showers. Scattered clouds.10 mph76%29.71 "HgN/A
1:20 PM45 °FScattered showers. Scattered clouds.9 mph87%29.71 "HgN/A
12:50 PM45 °FScattered clouds.9 mph87%29.71 "HgN/A
12:20 PM43 °FScattered clouds.8 mph93%29.68 "HgN/A
11:50 AM43 °FDrizzle. Partly sunny.13 mph93%29.68 "HgN/A
11:20 AM43 °FLight rain. Partly sunny.10 mph93%29.65 "HgN/A
10:50 AM43 °FPartly sunny.12 mph87%29.65 "HgN/A
10:20 AM43 °FLight rain. Partly sunny.13 mph93%29.62 "HgN/A
Weather by CustomWeather, © 2015

See weather overviewHow to use our weather pages